,,Stat6,,Stat2,,Stat8,,Stat9,,Stat10,,Wind1,,Wind1,
time,status,PA1M_AVG,status,PR1M_SUM,status,RH1M_AVG,status,SR1M_AVG,status,TA1M_AVG,status,W1dAve1m,status,W1sAve1m,
2004-06-21, 00:00:01,VALID,920.793,VALID,0,VALID,97.0171,VALID,0,VALID,18.0124,VALID,127,VALID,1.37295,
2004-06-21, 00:01:00,VALID,920.799,VALID,0,VALID,97.0692,VALID,0.0169808,VALID,17.9486,VALID,127,VALID,1.23976,
2004-06-21, 00:02:00,VALID,920.776,VALID,0,VALID,97.1646,VALID,0.0679233,VALID,17.8474,VALID,124,VALID,1.20767,
2004-06-21, 00:03:00,VALID,920.758,VALID,0,VALID,97.5232,VALID,0.0339617,VALID,17.8001,VALID,123,VALID,1.42387,
2004-06-21, 00:04:00,VALID,920.737,VALID,0,VALID,98.0941,VALID,0,VALID,17.7321,VALID,123,VALID,1.55966,
2004-06-21, 00:05:00,VALID,920.707,VALID,0,VALID,98.5061,VALID,0.0169808,VALID,17.6738,VALID,122,VALID,1.43324,
2004-06-21, 00:06:00,VALID,920.689,VALID,0,VALID,98.8749,VALID,0.0169808,VALID,17.6383,VALID,119,VALID,1.61973,
2004-06-21, 00:07:00,VALID,920.667,VALID,0,VALID,99.2182,VALID,0,VALID,17.6383,VALID,118,VALID,1.5066,
2004-06-21, 00:08:01,VALID,920.646,VALID,0,VALID,99.2729,VALID,0,VALID,17.642,VALID,122,VALID,1.51767,
2004-06-21, 00:09:00,VALID,920.639,VALID,0,VALID,99.3657,VALID,0,VALID,17.6413,VALID,121,VALID,1.5651,
2004-06-21, 00:10:00,VALID,920.643,VALID,0,VALID,99.3606,VALID,0,VALID,17.6678,VALID,120,VALID,1.64028,
2004-06-21, 00:11:00,VALID,920.647,VALID,0,VALID,99.1254,VALID,0.0339617,VALID,17.6801,VALID,122,VALID,1.50945,
2004-06-21, 00:12:00,VALID,920.638,VALID,0,VALID,99.1165,VALID,0.0339617,VALID,17.6867,VALID,116,VALID,1.63449,
2004-06-21, 00:13:01,VALID,920.626,VALID,0,VALID,98.9016,VALID,0.0169808,VALID,17.7125,VALID,108,VALID,1.34375,
2004-06-21, 00:14:00,VALID,920.618,VALID,0,VALID,98.8126,VALID,0.0339617,VALID,17.722,VALID,109,VALID,1.20967,
2004-06-21, 00:15:00,VALID,920.6,VALID,0,VALID,98.7948,VALID,0.0339617,VALID,17.7513,VALID,114,VALID,1.15025,
2004-06-21, 00:16:01,VALID,920.588,VALID,0,VALID,98.5646,VALID,0.0339617,VALID,17.7642,VALID,111,VALID,0.888207,
2004-06-21, 00:17:00,VALID,920.562,VALID,0,VALID,98.5188,VALID,0,VALID,17.7545,VALID,107,VALID,1.16834,
2004-06-21, 00:18:00,VALID,920.538,VALID,0,VALID,98.8164,VALID,0.0339617,VALID,17.7939,VALID,105,VALID,1.30124,
2004-06-21, 00:19:01,VALID,920.514,VALID,0,VALID,98.5888,VALID,0.0169808,VALID,17.8031,VALID,117,VALID,1.39826,
2004-06-21, 00:20:00,VALID,920.503,VALID,0,VALID,98.2162,VALID,0.0509425,VALID,17.79,VALID,122,VALID,1.42414,
2004-06-21, 00:21:00,VALID,920.49,VALID,0,VALID,97.7165,VALID,0.0169808,VALID,17.7255,VALID,123,VALID,1.40451,
2004-06-21, 00:22:00,VALID,920.484,VALID,0,VALID,97.7343,VALID,0.0169808,VALID,17.6745,VALID,120,VALID,1.26634,
2004-06-21, 00:23:00,VALID,920.481,VALID,0,VALID,97.9504,VALID,0,VALID,17.6293,VALID,111,VALID,1.70387,
2004-06-21, 00:24:00,VALID,920.488,VALID,0,VALID,98.5277,VALID,0.0169808,VALID,17.6416,VALID,106,VALID,1.5109,
2004-06-21, 00:25:00,VALID,920.504,VALID,0,VALID,98.3713,VALID,0.0169808,VALID,17.6385,VALID,106,VALID,0.95149,
2004-06-21, 00:26:00,VALID,920.499,VALID,0,VALID,98.412,VALID,0.0169808,VALID,17.6196,VALID,119,VALID,0.930778,
2004-06-21, 00:27:00,VALID,920.493,VALID,0,VALID,98.487,VALID,0.0169808,VALID,17.6065,VALID,118,VALID,1.06177,
2004-06-21, 00:28:01,VALID,920.482,VALID,0,VALID,98.5557,VALID,0,VALID,17.5934,VALID,116,VALID,1.03125,
2004-06-21, 00:29:00,VALID,920.448,VALID,0,VALID,98.791,VALID,0.0339617,VALID,17.6028,VALID,105,VALID,1.17733,
2004-06-21, 00:30:01,VALID,920.432,VALID,0,VALID,98.913,VALID,0,VALID,17.6452,VALID,105,VALID,1.18623,
2004-06-21, 00:31:00,VALID,920.434,VALID,0,VALID,98.941,VALID,0.0169808,VALID,17.6773,VALID,109,VALID,1.10804,
2004-06-21, 00:32:01,VALID,920.431,VALID,0,VALID,98.7948,VALID,0,VALID,17.6996,VALID,115,VALID,1.32127,
2004-06-21, 00:33:01,VALID,920.44,VALID,0,VALID,98.3675,VALID,0.0339617,VALID,17.6966,VALID,118,VALID,1.29743,
2004-06-21, 00:34:00,VALID,920.448,VALID,0,VALID,98.0216,VALID,0,VALID,17.6616,VALID,115,VALID,1.27401,
2004-06-21, 00:35:00,VALID,920.438,VALID,0,VALID,97.691,VALID,0,VALID,17.5869,VALID,131,VALID,1.27433,
2004-06-21, 00:36:00,VALID,920.452,VALID,0,VALID,97.5092,VALID,0,VALID,17.5101,VALID,121,VALID,1.17028,
2004-06-21, 00:37:01,VALID,920.45,VALID,0,VALID,97.7826,VALID,0,VALID,17.4353,VALID,115,VALID,1.21839,
2004-06-21, 00:38:01,VALID,920.452,VALID,0,VALID,98.0127,VALID,0.0169808,VALID,17.4161,VALID,115,VALID,1.3157,
2004-06-21, 00:39:00,VALID,920.425,VALID,0,VALID,98.3726,VALID,0,VALID,17.4101,VALID,107,VALID,1.32184,
2004-06-21, 00:40:01,VALID,920.406,VALID,0,VALID,98.3929,VALID,0,VALID,17.4002,VALID,113,VALID,1.16815,
2004-06-21, 00:41:00,VALID,920.386,VALID,0,VALID,98.6091,VALID,0.0169808,VALID,17.3873,VALID,112,VALID,1.27801,
2004-06-21, 00:42:00,VALID,920.357,VALID,0,VALID,98.7541,VALID,0,VALID,17.4163,VALID,106,VALID,1.13767,
2004-06-21, 00:43:00,VALID,920.341,VALID,0,VALID,98.8838,VALID,0,VALID,17.4484,VALID,105,VALID,1.16536,
2004-06-21, 00:44:01,VALID,920.333,VALID,0,VALID,98.674,VALID,0,VALID,17.4809,VALID,103,VALID,1.24047,
2004-06-21, 00:45:01,VALID,920.33,VALID,0,VALID,98.5379,VALID,-0.0169808,VALID,17.5067,VALID,104,VALID,1.26658,
2004-06-21, 00:46:00,VALID,920.325,VALID,0,VALID,98.1768,VALID,0,VALID,17.5359,VALID,105,VALID,1.24328,
2004-06-21, 00:47:01,VALID,920.325,VALID,0,VALID,98.089,VALID,0,VALID,17.5452,VALID,97,VALID,1.33743,
2004-06-21, 00:48:01,VALID,920.323,VALID,0,VALID,98.0229,VALID,0,VALID,17.6136,VALID,103,VALID,1.27798,
2004-06-21, 00:49:00,VALID,920.314,VALID,0,VALID,97.6859,VALID,0.0169808,VALID,17.6588,VALID,92,VALID,1.09966,
2004-06-21, 00:50:00,VALID,920.303,VALID,0,VALID,97.2803,VALID,0,VALID,17.6839,VALID,105,VALID,1.41824,
2004-06-21, 00:51:01,VALID,920.304,VALID,0,VALID,96.9764,VALID,-0.101885,VALID,17.7595,VALID,95,VALID,1.17383,
2004-06-21, 00:52:00,VALID,920.284,VALID,0,VALID,96.146,VALID,-0.101885,VALID,17.8245,VALID,104,VALID,1.30283,
2004-06-21, 00:53:01,VALID,920.261,VALID,0,VALID,95.5509,VALID,-0.135847,VALID,17.8731,VALID,104,VALID,1.44978,
2004-06-21, 00:54:00,VALID,920.243,VALID,0,VALID,95.1504,VALID,-0.101885,VALID,17.928,VALID,104,VALID,1.10271,
2004-06-21, 00:55:00,VALID,920.209,VALID,0,VALID,94.5718,VALID,-0.118866,VALID,17.9603,VALID,78,VALID,0.780717,
2004-06-21, 00:56:00,VALID,920.185,VALID,0,VALID,92.8704,VALID,-0.118866,VALID,17.8921,VALID,65,VALID,0.653764,
2004-06-21, 00:57:01,VALID,920.15,VALID,0,VALID,92.1621,VALID,-0.101885,VALID,17.6309,VALID,54,VALID,0.951527,
2004-06-21, 00:58:00,VALID,920.118,VALID,0,VALID,93.2709,VALID,-0.101885,VALID,17.4082,VALID,53,VALID,0.849609,
2004-06-21, 00:59:01,VALID,920.099,VALID,0,VALID,94.0975,VALID,-0.101885,VALID,17.2374,VALID,53,VALID,0.621466,
2004-06-21, 01:00:01,VALID,920.079,VALID,0,VALID,94.8363,VALID,-0.0849042,VALID,17.1141,VALID,53,VALID,0.254906,
2004-06-21, 01:01:01,VALID,920.08,VALID,0,VALID,95.425,VALID,-0.101885,VALID,17.047,VALID,53,VALID,0.0250355,
2004-06-21, 01:02:01,VALID,920.044,VALID,0,VALID,96.0354,VALID,-0.135847,VALID,17.0046,VALID,53,VALID,0,
2004-06-21, 01:03:00,VALID,920.054,VALID,0,VALID,96.4029,VALID,-0.101885,VALID,16.9949,VALID,53,VALID,0,
2004-06-21, 01:04:01,VALID,920.043,VALID,0,VALID,96.4652,VALID,-0.0849042,VALID,16.9661,VALID,53,VALID,0,
2004-06-21, 01:05:00,VALID,920.05,VALID,0,VALID,96.4474,VALID,-0.0679233,VALID,16.9209,VALID,53,VALID,0.164453,
2004-06-21, 01:06:00,VALID,920.054,VALID,0,VALID,96.5631,VALID,0.0169808,VALID,16.8588,VALID,53,VALID,0.406072,
2004-06-21, 01:07:00,VALID,920.069,VALID,0,VALID,96.9993,VALID,0,VALID,16.8323,VALID,53,VALID,0.505022,
2004-06-21, 01:08:01,VALID,920.071,VALID,0,VALID,97.2867,VALID,-0.0339617,VALID,16.8007,VALID,51,VALID,0.631641,
2004-06-21, 01:09:00,VALID,920.086,VALID,0,VALID,97.4367,VALID,0.0169808,VALID,16.7295,VALID,39,VALID,0.847356,
2004-06-21, 01:10:01,VALID,920.094,VALID,0,VALID,98.1984,VALID,0.0169808,VALID,16.7233,VALID,35,VALID,0.852325,
2004-06-21, 01:11:01,VALID,920.083,VALID,0,VALID,98.0344,VALID,-0.0169808,VALID,16.6688,VALID,20,VALID,0.991044,
2004-06-21, 01:12:01,VALID,920.086,VALID,0,VALID,97.574,VALID,0,VALID,16.5361,VALID,16,VALID,0.894717,
2004-06-21, 01:13:01,VALID,920.075,VALID,0,VALID,98.2264,VALID,0,VALID,16.4811,VALID,16,VALID,0.828125,
2004-06-21, 01:14:00,VALID,920.06,VALID,0,VALID,98.8075,VALID,0,VALID,16.5267,VALID,16,VALID,0.946135,
2004-06-21, 01:15:01,VALID,920.055,VALID,0,VALID,99.2551,VALID,-0.0169808,VALID,16.5493,VALID,16,VALID,0.945135,
2004-06-21, 01:16:00,VALID,920.051,VALID,0,VALID,99.5209,VALID,0,VALID,16.5845,VALID,16,VALID,0.935404,
2004-06-21, 01:17:01,VALID,920.022,VALID,0,VALID,99.4776,VALID,0,VALID,16.5587,VALID,16,VALID,1.137,
2004-06-21, 01:18:01,VALID,920.008,VALID,0,VALID,99.9446,VALID,0,VALID,16.6458,VALID,20,VALID,1.76225,
2004-06-21, 01:19:01,VALID,920.009,VALID,0,VALID,99.5616,VALID,0,VALID,16.6295,VALID,17,VALID,1.92264,
2004-06-21, 01:20:00,VALID,920.019,VALID,0,VALID,99.5514,VALID,0,VALID,16.6779,VALID,14,VALID,1.53857,
2004-06-21, 01:21:00,VALID,920.021,VALID,0,VALID,99.6328,VALID,0,VALID,16.8005,VALID,353,VALID,1.11828,
2004-06-21, 01:22:01,VALID,920.01,VALID,0,VALID,99.8464,VALID,0.0339617,VALID,16.9878,VALID,331,VALID,0.866992,
2004-06-21, 01:23:01,VALID,920.012,VALID,0,VALID,99.5336,VALID,0.0339617,VALID,17.107,VALID,357,VALID,0.669876,
2004-06-21, 01:24:01,VALID,919.987,VALID,0,VALID,98.9677,VALID,0.0509425,VALID,17.1326,VALID,358,VALID,0.303089,
2004-06-21, 01:25:01,VALID,919.966,VALID,0,VALID,98.8177,VALID,0.0339617,VALID,17.1715,VALID,356,VALID,0.623001,
2004-06-21, 01:26:01,VALID,919.938,VALID,0,VALID,98.6816,VALID,0.0339617,VALID,17.2425,VALID,7,VALID,0.834263,
2004-06-21, 01:27:01,VALID,919.941,VALID,0,VALID,98.117,VALID,0,VALID,17.2526,VALID,25,VALID,0.744673,
2004-06-21, 01:28:01,VALID,919.933,VALID,0,VALID,97.8449,VALID,-0.0169808,VALID,17.2658,VALID,27,VALID,0.525781,
2004-06-21, 01:29:01,VALID,919.941,VALID,0,VALID,97.5015,VALID,0,VALID,17.2296,VALID,27,VALID,0.322359,
2004-06-21, 01:30:01,VALID,919.938,VALID,0,VALID,97.5804,VALID,0.0169808,VALID,17.2232,VALID,27,VALID,0.335574,
2004-06-21, 01:31:01,VALID,919.935,VALID,0,VALID,97.3261,VALID,0,VALID,17.2105,VALID,27,VALID,0.143293,
2004-06-21, 01:32:01,VALID,919.943,VALID,0,VALID,97.0311,VALID,0,VALID,17.1685,VALID,27,VALID,0,
2004-06-21, 01:33:01,VALID,919.948,VALID,0,VALID,97.148,VALID,0,VALID,17.1489,VALID,27,VALID,0.0772166,
2004-06-21, 01:34:01,VALID,919.942,VALID,0,VALID,97.0336,VALID,0,VALID,17.1399,VALID,27,VALID,0.0258557,
2004-06-21, 01:35:01,VALID,919.949,VALID,0,VALID,97.1074,VALID,0,VALID,17.1365,VALID,27,VALID,0.138529,
2004-06-21, 01:36:01,VALID,919.956,VALID,0,VALID,97.1735,VALID,0,VALID,17.1363,VALID,13,VALID,0.43821,
2004-06-21, 01:37:01,VALID,919.95,VALID,0,VALID,97.3439,VALID,0.0169808,VALID,17.1621,VALID,5,VALID,0.672256,
2004-06-21, 01:38:01,VALID,919.93,VALID,0,VALID,97.3935,VALID,0,VALID,17.1879,VALID,7,VALID,0.732422,
2004-06-21, 01:39:01,VALID,919.915,VALID,0,VALID,97.2714,VALID,0.0509425,VALID,17.2038,VALID,346,VALID,0.714286,
2004-06-21, 01:40:01,VALID,919.908,VALID,0,VALID,97.6414,VALID,0,VALID,17.2589,VALID,343,VALID,1.24873,
2004-06-21, 01:41:01,VALID,919.891,VALID,0,VALID,97.7482,VALID,0,VALID,17.3753,VALID,359,VALID,0.93843,
2004-06-21, 01:42:01,VALID,919.888,VALID,0,VALID,97.0196,VALID,0,VALID,17.4075,VALID,341,VALID,0.624442,
2004-06-21, 01:43:01,VALID,919.875,VALID,0,VALID,96.5504,VALID,-0.0169808,VALID,17.4204,VALID,283,VALID,0.419331,
2004-06-21, 01:44:01,VALID,919.871,VALID,0,VALID,96.9522,VALID,0.0169808,VALID,17.4299,VALID,227,VALID,0.353087,
2004-06-21, 01:45:01,VALID,919.867,VALID,0,VALID,96.7271,VALID,0.0169808,VALID,17.4331,VALID,300,VALID,0.513765,
2004-06-21, 01:46:01,VALID,919.86,VALID,0,VALID,96.3075,VALID,0.0339617,VALID,17.3393,VALID,335,VALID,0.292969,
2004-06-21, 01:47:01,VALID,919.856,VALID,0,VALID,96.6966,VALID,0.0169808,VALID,17.3684,VALID,315,VALID,0.0606399,
2004-06-21, 01:48:00,VALID,919.84,VALID,0,VALID,96.3787,VALID,0.0849042,VALID,17.3329,VALID,315,VALID,0,
2004-06-21, 01:49:00,VALID,919.823,VALID,0,VALID,96.0189,VALID,0.0169808,VALID,17.2614,VALID,315,VALID,0,
2004-06-21, 01:50:00,VALID,919.815,VALID,0,VALID,96.1231,VALID,0.0169808,VALID,17.2522,VALID,315,VALID,0.00327035,
2004-06-21, 01:51:00,VALID,919.818,VALID,0,VALID,96.2007,VALID,0.0339617,VALID,17.2229,VALID,315,VALID,0.137251,
2004-06-21, 01:52:00,VALID,919.827,VALID,0,VALID,96.2961,VALID,0,VALID,17.1812,VALID,315,VALID,0.0536222,
2004-06-21, 01:53:00,VALID,919.824,VALID,0,VALID,96.6178,VALID,0.0169808,VALID,17.1494,VALID,315,VALID,0.184495,
2004-06-21, 01:54:00,VALID,919.839,VALID,0,VALID,96.6699,VALID,0.0339617,VALID,17.136,VALID,315,VALID,0.0672238,
2004-06-21, 01:55:00,VALID,919.846,VALID,0,VALID,96.867,VALID,0,VALID,17.1201,VALID,315,VALID,0,
2004-06-21, 01:56:00,VALID,919.864,VALID,0,VALID,97.2154,VALID,0,VALID,17.1365,VALID,319,VALID,0.0126488,
2004-06-21, 01:57:00,VALID,919.888,VALID,0,VALID,97.0692,VALID,0.0339617,VALID,17.133,VALID,356,VALID,0.338986,
2004-06-21, 01:58:00,VALID,919.891,VALID,0,VALID,97.3833,VALID,0.0169808,VALID,17.1427,VALID,50,VALID,0.373757,
2004-06-21, 01:59:00,VALID,919.909,VALID,0,VALID,96.4792,VALID,0,VALID,17.1363,VALID,51,VALID,0.29851,
2004-06-21, 02:00:00,VALID,919.924,VALID,0,VALID,96.5758,VALID,0,VALID,17.0814,VALID,51,VALID,0.425877,
2004-06-21, 02:01:00,VALID,919.937,VALID,0,VALID,96.3126,VALID,0,VALID,17.0526,VALID,51,VALID,0.418241,
2004-06-21, 02:02:00,VALID,919.946,VALID,0,VALID,95.3589,VALID,0,VALID,16.9562,VALID,51,VALID,0.300604,
2004-06-21, 02:03:00,VALID,919.945,VALID,0,VALID,95.4314,VALID,0,VALID,16.8362,VALID,51,VALID,0.383194,
2004-06-21, 02:04:00,VALID,919.94,VALID,0,VALID,95.7048,VALID,0,VALID,16.7523,VALID,72,VALID,0.480469,
2004-06-21, 02:05:00,VALID,919.941,VALID,0,VALID,95.7137,VALID,0.0339617,VALID,16.669,VALID,137,VALID,0.837754,
2004-06-21, 02:06:00,VALID,919.929,VALID,0,VALID,96.0621,VALID,0,VALID,16.5854,VALID,142,VALID,0.773251,
2004-06-21, 02:07:00,VALID,919.921,VALID,0,VALID,96.6801,VALID,0,VALID,16.4976,VALID,142,VALID,0.851563,
2004-06-21, 02:08:00,VALID,919.921,VALID,0,VALID,97.2854,VALID,0.0169808,VALID,16.4753,VALID,135,VALID,0.84043,
2004-06-21, 02:09:00,VALID,919.919,VALID,0,VALID,97.6325,VALID,0.0169808,VALID,16.4529,VALID,133,VALID,0.754616,
2004-06-21, 02:10:00,VALID,919.911,VALID,0,VALID,98.0598,VALID,0,VALID,16.4557,VALID,132,VALID,0.552591,
2004-06-21, 02:11:00,VALID,919.911,VALID,0,VALID,98.2137,VALID,0.0169808,VALID,16.4462,VALID,132,VALID,0.558333,
2004-06-21, 02:12:00,VALID,919.902,VALID,0,VALID,98.454,VALID,0,VALID,16.4297,VALID,132,VALID,0.42168,
2004-06-21, 02:13:00,VALID,919.888,VALID,0,VALID,99.0122,VALID,0.0169808,VALID,16.4718,VALID,132,VALID,0.453516,
2004-06-21, 02:14:00,VALID,919.868,VALID,0,VALID,99.3123,VALID,0,VALID,16.4974,VALID,132,VALID,0.577237,
2004-06-21, 02:15:00,VALID,919.846,VALID,0,VALID,99.0478,VALID,0,VALID,16.5079,VALID,131,VALID,0.553571,
2004-06-21, 02:16:00,VALID,919.818,VALID,0,VALID,98.4998,VALID,0,VALID,16.4077,VALID,130,VALID,0.360465,
2004-06-21, 02:17:00,VALID,919.777,VALID,0,VALID,98.7782,VALID,0.0169808,VALID,16.3398,VALID,130,VALID,0.426339,
2004-06-21, 02:18:00,VALID,919.763,VALID,0,VALID,99.5933,VALID,0,VALID,16.375,VALID,130,VALID,0.471726,
2004-06-21, 02:19:00,VALID,919.727,VALID,0,VALID,99.3174,VALID,-0.0169808,VALID,16.4176,VALID,130,VALID,0.231468,
2004-06-21, 02:20:00,VALID,919.73,VALID,0,VALID,98.5964,VALID,0,VALID,16.3299,VALID,130,VALID,0.287064,
2004-06-21, 02:21:00,VALID,919.719,VALID,0,VALID,98.5811,VALID,-0.0849042,VALID,16.2565,VALID,130,VALID,0.481027,
2004-06-21, 02:22:00,VALID,919.703,VALID,0,VALID,99.0669,VALID,-0.101885,VALID,16.27,VALID,130,VALID,0.728609,
2004-06-21, 02:23:00,VALID,919.699,VALID,0,VALID,99.1368,VALID,-0.0849042,VALID,16.2505,VALID,130,VALID,0.809524,
2004-06-21, 02:24:00,VALID,919.687,VALID,0,VALID,98.7045,VALID,-0.101885,VALID,16.199,VALID,130,VALID,0.69566,
2004-06-21, 02:25:00,VALID,919.683,VALID,0,VALID,98.7147,VALID,-0.0509425,VALID,16.1248,VALID,130,VALID,0.787246,
2004-06-21, 02:26:00,VALID,919.667,VALID,0,VALID,98.6587,VALID,-0.0849042,VALID,16.0702,VALID,130,VALID,0.826823,
2004-06-21, 02:27:00,VALID,919.66,VALID,0,VALID,98.6829,VALID,-0.101885,VALID,15.9956,VALID,127,VALID,0.68192,
2004-06-21, 02:28:00,VALID,919.649,VALID,0,VALID,98.5659,VALID,-0.101885,VALID,15.9412,VALID,125,VALID,0.651786,
2004-06-21, 02:29:00,VALID,919.612,VALID,0,VALID,98.468,VALID,-0.101885,VALID,15.8734,VALID,125,VALID,0.418501,
2004-06-21, 02:30:00,VALID,919.609,VALID,0,VALID,98.6549,VALID,-0.0849042,VALID,15.8317,VALID,125,VALID,0.471839,
2004-06-21, 02:31:00,VALID,919.594,VALID,0,VALID,99.1267,VALID,-0.118866,VALID,15.8381,VALID,125,VALID,0.511111,
2004-06-21, 02:32:00,VALID,919.593,VALID,0,VALID,99.6595,VALID,-0.118866,VALID,15.874,VALID,125,VALID,0.616122,
2004-06-21, 02:33:00,VALID,919.579,VALID,0,VALID,99.9939,VALID,-0.101885,VALID,15.9543,VALID,125,VALID,0.619048,
2004-06-21, 02:34:00,VALID,919.576,VALID,0,VALID,100,VALID,-0.101885,VALID,16.0061,VALID,125,VALID,0.625,
2004-06-21, 02:35:00,VALID,919.572,VALID,0,VALID,100,VALID,-0.0849042,VALID,16.0416,VALID,125,VALID,0.526736,
2004-06-21, 02:36:00,VALID,919.554,VALID,0,VALID,100,VALID,-0.0849042,VALID,16.1452,VALID,125,VALID,0.373641,
2004-06-21, 02:37:00,VALID,919.543,VALID,0,VALID,100,VALID,-0.101885,VALID,16.2126,VALID,125,VALID,0.517933,
2004-06-21, 02:38:00,VALID,919.551,VALID,0,VALID,99.9031,VALID,-0.101885,VALID,16.1865,VALID,125,VALID,0.791424,
2004-06-21, 02:39:00,VALID,919.538,VALID,0,VALID,99.5501,VALID,-0.101885,VALID,16.1158,VALID,125,VALID,0.81901,
2004-06-21, 02:40:00,VALID,919.529,VALID,0,VALID,99.3683,VALID,-0.101885,VALID,16.0642,VALID,125,VALID,0.806686,
2004-06-21, 02:41:00,VALID,919.542,VALID,0,VALID,99.5323,VALID,-0.118866,VALID,16.0349,VALID,125,VALID,0.893043,
2004-06-21, 02:42:00,VALID,919.528,VALID,0,VALID,99.8449,VALID,-0.0509425,VALID,16.0803,VALID,125,VALID,0.896289,
2004-06-21, 02:43:00,VALID,919.517,VALID,0,VALID,99.4636,VALID,-0.101885,VALID,16.041,VALID,132,VALID,0.665923,
2004-06-21, 02:44:00,VALID,919.516,VALID,0,VALID,99.5959,VALID,-0.0849042,VALID,16.0353,VALID,134,VALID,0.712843,
2004-06-21, 02:45:00,VALID,919.502,VALID,0,VALID,99.5247,VALID,-0.101885,VALID,16.022,VALID,139,VALID,0.68099,
2004-06-21, 02:46:00,VALID,919.5,VALID,0,VALID,99.5069,VALID,-0.101885,VALID,16.0093,VALID,143,VALID,0.710029,
2004-06-21, 02:47:00,VALID,919.492,VALID,0,VALID,99.5005,VALID,-0.101885,VALID,15.9867,VALID,142,VALID,0.659412,
2004-06-21, 02:48:00,VALID,919.465,VALID,0,VALID,99.704,VALID,-0.0849042,VALID,15.9928,VALID,143,VALID,1.00186,
2004-06-21, 02:49:00,VALID,919.433,VALID,0,VALID,99.9619,VALID,-0.101885,VALID,16.0381,VALID,142,VALID,0.992746,
2004-06-21, 02:50:00,VALID,919.414,VALID,0,VALID,99.9657,VALID,-0.101885,VALID,16.0736,VALID,137,VALID,0.990663,
2004-06-21, 02:51:00,VALID,919.389,VALID,0,VALID,99.8553,VALID,0,VALID,16.0823,VALID,136,VALID,0.991629,
2004-06-21, 02:52:00,VALID,919.36,VALID,0,VALID,99.7497,VALID,0,VALID,16.0952,VALID,136,VALID,0.976017,
2004-06-21, 02:53:00,VALID,919.341,VALID,0,VALID,99.8655,VALID,0,VALID,16.1045,VALID,134,VALID,1.07652,
2004-06-21, 02:54:00,VALID,919.32,VALID,0,VALID,99.69,VALID,0,VALID,16.1109,VALID,134,VALID,0.83346,
2004-06-21, 02:55:00,VALID,919.296,VALID,0,VALID,99.7243,VALID,0.0169808,VALID,16.1012,VALID,134,VALID,0.826126,
2004-06-21, 02:56:00,VALID,919.27,VALID,0,VALID,99.7294,VALID,0,VALID,16.1115,VALID,133,VALID,0.897166,
2004-06-21, 02:57:00,VALID,919.247,VALID,0,VALID,99.8884,VALID,0.0339617,VALID,16.147,VALID,130,VALID,1.11599,
2004-06-21, 02:58:00,VALID,919.228,VALID,0,VALID,99.9329,VALID,0,VALID,16.1761,VALID,133,VALID,1.13379,
2004-06-21, 02:59:00,VALID,919.202,VALID,0,VALID,100,VALID,-0.0169808,VALID,16.221,VALID,134,VALID,1.03001,
2004-06-21, 03:00:00,VALID,919.197,VALID,0,VALID,99.9374,VALID,0,VALID,16.2628,VALID,136,VALID,1.02823,
2004-06-21, 03:01:00,VALID,919.184,VALID,0,VALID,99.5832,VALID,0.0169808,VALID,16.273,VALID,124,VALID,0.873047,
2004-06-21, 03:02:00,VALID,919.178,VALID,0,VALID,99.3962,VALID,0,VALID,16.2597,VALID,121,VALID,0.723474,
2004-06-21, 03:03:00,VALID,919.156,VALID,0,VALID,99.1902,VALID,0.0169808,VALID,16.2563,VALID,121,VALID,0.689303,
2004-06-21, 03:04:00,VALID,919.146,VALID,0,VALID,99.0097,VALID,0,VALID,16.2406,VALID,122,VALID,0.556641,
2004-06-21, 03:05:00,VALID,919.145,VALID,0,VALID,98.7477,VALID,0,VALID,16.2277,VALID,122,VALID,0.479883,
2004-06-21, 03:06:00,VALID,919.154,VALID,0,VALID,98.2137,VALID,0,VALID,16.1595,VALID,122,VALID,0.41673,
2004-06-21, 03:07:00,VALID,919.165,VALID,0,VALID,97.9314,VALID,0.0169808,VALID,16.0791,VALID,122,VALID,0.269709,
2004-06-21, 03:08:00,VALID,919.167,VALID,0,VALID,98.1475,VALID,0,VALID,16.0142,VALID,122,VALID,0.226749,
2004-06-21, 03:09:00,VALID,919.18,VALID,0,VALID,98.2658,VALID,0.0339617,VALID,15.9694,VALID,122,VALID,0.125381,
2004-06-21, 03:10:00,VALID,919.191,VALID,0,VALID,98.9143,VALID,0.0169808,VALID,15.9758,VALID,122,VALID,0.0236151,
2004-06-21, 03:11:00,VALID,919.191,VALID,0,VALID,99.208,VALID,0.0169808,VALID,16.0019,VALID,122,VALID,0,
2004-06-21, 03:12:00,VALID,919.186,VALID,0,VALID,99.203,VALID,0.0169808,VALID,16.0051,VALID,122,VALID,0.151042,
2004-06-21, 03:13:00,VALID,919.187,VALID,0,VALID,98.9181,VALID,0,VALID,15.9466,VALID,122,VALID,0.528963,
2004-06-21, 03:14:00,VALID,919.183,VALID,0,VALID,98.7643,VALID,0.0339617,VALID,15.8859,VALID,124,VALID,0.66887,
2004-06-21, 03:15:00,VALID,919.183,VALID,0,VALID,98.66,VALID,0,VALID,15.8047,VALID,132,VALID,0.843555,
2004-06-21, 03:16:00,VALID,919.185,VALID,0,VALID,99.1254,VALID,0.0339617,VALID,15.7984,VALID,140,VALID,0.814977,
2004-06-21, 03:17:00,VALID,919.21,VALID,0,VALID,99.5844,VALID,0,VALID,15.8371,VALID,135,VALID,0.811967,
2004-06-21, 03:18:00,VALID,919.226,VALID,0,VALID,99.3644,VALID,0,VALID,15.8698,VALID,127,VALID,0.693403,
2004-06-21, 03:19:00,VALID,919.244,VALID,0,VALID,99.0555,VALID,0,VALID,15.8244,VALID,127,VALID,0.50266,
2004-06-21, 03:20:00,VALID,919.248,VALID,0,VALID,98.8151,VALID,0,VALID,15.7791,VALID,124,VALID,0.302782,
2004-06-21, 03:21:00,VALID,919.251,VALID,0,VALID,98.9029,VALID,0,VALID,15.7311,VALID,124,VALID,0.163061,
2004-06-21, 03:22:00,VALID,919.249,VALID,0,VALID,99.3466,VALID,0,VALID,15.7212,VALID,124,VALID,0.180556,
2004-06-21, 03:23:00,VALID,919.228,VALID,0,VALID,99.3899,VALID,0,VALID,15.7373,VALID,124,VALID,0.231771,
2004-06-21, 03:24:00,VALID,919.219,VALID,0,VALID,98.5328,VALID,0,VALID,15.5857,VALID,124,VALID,0.257979,
2004-06-21, 03:25:00,VALID,919.221,VALID,0,VALID,99.0771,VALID,0.0169808,VALID,15.5761,VALID,124,VALID,0.333452,
2004-06-21, 03:26:00,VALID,919.208,VALID,0,VALID,99.1241,VALID,0.0509425,VALID,15.5567,VALID,124,VALID,0.160528,
2004-06-21, 03:27:00,VALID,919.214,VALID,0,VALID,99.7459,VALID,0,VALID,15.596,VALID,124,VALID,0.176067,
2004-06-21, 03:28:00,VALID,919.203,VALID,0,VALID,100,VALID,0.0509425,VALID,15.667,VALID,124,VALID,0.226181,
2004-06-21, 03:29:00,VALID,919.206,VALID,0,VALID,99.7991,VALID,0,VALID,15.6926,VALID,124,VALID,0.314918,
2004-06-21, 03:30:00,VALID,919.22,VALID,0,VALID,99.5209,VALID,0,VALID,15.6408,VALID,124,VALID,0.497266,
2004-06-21, 03:31:00,VALID,919.218,VALID,0,VALID,99.3492,VALID,0.0169808,VALID,15.599,VALID,124,VALID,0.437314,
2004-06-21, 03:32:00,VALID,919.197,VALID,0,VALID,99.2805,VALID,0,VALID,15.5442,VALID,124,VALID,0.550781,
2004-06-21, 03:33:00,VALID,919.187,VALID,0,VALID,99.3263,VALID,0,VALID,15.5123,VALID,124,VALID,0.422656,
2004-06-21, 03:34:00,VALID,919.177,VALID,0,VALID,99.2615,VALID,0,VALID,15.47,VALID,124,VALID,0.237827,
2004-06-21, 03:35:00,VALID,919.158,VALID,0,VALID,99.264,VALID,0,VALID,15.441,VALID,124,VALID,0.050686,
2004-06-21, 03:36:00,VALID,919.152,VALID,0,VALID,99.3975,VALID,0,VALID,15.4315,VALID,124,VALID,0,
2004-06-21, 03:37:00,VALID,919.136,VALID,0,VALID,99.6035,VALID,0.0509425,VALID,15.4571,VALID,124,VALID,0,